Daytona Beach, FL

1:47 AM EDT on April 26, 2018 (GMT -0400)
Daytona Beach International

Weather History for KDAB - October, 2013

Change the Weather History Date:

Thursday, October 17, 2013

  Actual Average Record
Temperature  
Mean Temperature 76 °F 74 °F  
Max Temperature 84 °F 82 °F 90 °F (1925)
Min Temperature 67 °F 66 °F 46 °F (1943)
Degree Days  
Heating Degree Days 0 0  
Month to date heating degree days 0 0  
Since 1 July heating degree days 0 0  
Cooling Degree Days 11 9  
Month to date cooling degree days 189 183  
Year to date cooling degree days 2847 2693  
Growing Degree Days 25 (Base 50)    
Moisture  
Dew Point 70 °F    
Average Humidity 83    
Maximum Humidity 100    
Minimum Humidity 65    
Precipitation  
Precipitation 0.00 in 0.14 in 2.90 in (1983)
Month to date precipitation 1.99 2.72  
Year to date precipitation 42.98 42.81  
Sea Level Pressure  
Sea Level Pressure 29.96 in    
Wind  
Wind Speed 3 mph (North)    
Max Wind Speed 10 mph    
Max Gust Speed 13 mph    
Visibility 7 miles    
Events Fog    
T = Trace of Precipitation, MM = Missing Value Source: NWS Daily Summary

Daily Weather History Graph

Daily Weather History Graph

Search for Another Location

Airport or City:

Astronomy

Oct. 17, 2013 Rise Set
Actual Time 7:26 AM EDT 6:51 PM EDT
Civil Twilight 7:02 AM EDT 7:15 PM EDT
Nautical Twilight 6:35 AM EDT 7:43 PM EDT
Astronomical Twilight 6:07 AM EDT 8:10 PM EDT
Moon 6:02 PM EDT (10/17) 6:02 AM EDT (10/17)
Length of Visible Light 12h 12m
Length of Day
11h 24m
Waxing Gibbous, 98% of the Moon is Illuminated
Oct 17
Waxing Gibbous
Oct 18
Full
Oct 26
Last Quarter
Nov 3
New
Nov 10
First Quarter

Hourly Weather History & Observations

Time (EDT) Temp. Heat Index Dew Point Humidity Pressure Visibility Wind Dir Wind Speed Gust Speed Precip Events Conditions
12:53 AM 72.0 °F - 70.0 °F 93% 29.96 in 10.0 mi Calm Calm - N/A   Clear
1:53 AM 71.1 °F - 70.0 °F 96% 29.95 in 10.0 mi Calm Calm - N/A   Clear
2:53 AM 70.0 °F - 69.1 °F 97% 29.94 in 10.0 mi Calm Calm - N/A   Partly Cloudy
3:53 AM 69.1 °F - 69.1 °F 100% 29.93 in 8.0 mi Calm Calm - N/A   Clear
4:53 AM 69.1 °F - 68.0 °F 96% 29.94 in 8.0 mi SW 3.5 mph - N/A   Clear
5:21 AM 69.8 °F - 66.2 °F 88% 29.94 in 7.0 mi Calm Calm - N/A   Partly Cloudy
5:53 AM 68.0 °F - 68.0 °F 100% 29.95 in 7.0 mi Calm Calm - N/A   Partly Cloudy
6:26 AM 68.0 °F - 66.2 °F 94% 29.95 in 1.0 mi Calm Calm - N/A   Mostly Cloudy
6:45 AM 68.0 °F - 68.0 °F 100% 29.96 in 1.0 mi Calm Calm - N/A   Mostly Cloudy
6:53 AM 68.0 °F - 68.0 °F 100% 29.96 in 0.5 mi Calm Calm - N/A Fog Fog
7:24 AM 68.0 °F - 68.0 °F 100% 29.97 in 1.0 mi Calm Calm - N/A   Mostly Cloudy
7:35 AM 68.0 °F - 68.0 °F 100% 29.97 in 1.0 mi Calm Calm - N/A   Scattered Clouds
7:51 AM 69.8 °F - 69.8 °F 100% 29.98 in 1.0 mi Calm Calm - N/A   Mostly Cloudy
7:53 AM 69.1 °F - 69.1 °F 100% 29.98 in 1.0 mi Calm Calm - N/A   Mostly Cloudy
7:56 AM 69.8 °F - 69.8 °F 100% 29.98 in 3.0 mi Calm Calm - N/A   Scattered Clouds
8:53 AM 72.0 °F - 71.1 °F 97% 29.99 in 9.0 mi Calm Calm - N/A   Partly Cloudy
9:53 AM 77.0 °F - 72.0 °F 84% 30.00 in 10.0 mi West 5.8 mph - N/A   Partly Cloudy
10:53 AM 79.0 °F - 71.1 °F 77% 30.00 in 10.0 mi WNW 5.8 mph - N/A   Scattered Clouds
11:53 AM 80.1 °F 82.9 °F 69.1 °F 69% 29.99 in 10.0 mi West 6.9 mph - N/A   Scattered Clouds
12:53 PM 82.9 °F 86.5 °F 69.1 °F 63% 29.98 in 10.0 mi WNW 6.9 mph - N/A   Scattered Clouds
1:53 PM 81.0 °F 84.9 °F 71.1 °F 72% 29.95 in 10.0 mi NE 9.2 mph - N/A   Scattered Clouds
2:53 PM 80.1 °F 83.2 °F 70.0 °F 71% 29.94 in 10.0 mi ENE 6.9 mph - N/A   Scattered Clouds
3:53 PM 82.0 °F 86.3 °F 71.1 °F 69% 29.93 in 10.0 mi NE 8.1 mph - N/A   Scattered Clouds
4:53 PM 79.0 °F - 70.0 °F 74% 29.93 in 10.0 mi ENE 6.9 mph - N/A   Scattered Clouds
5:53 PM 80.1 °F 83.6 °F 71.1 °F 74% 29.92 in 10.0 mi ENE 8.1 mph - N/A   Partly Cloudy
6:53 PM 77.0 °F - 70.0 °F 79% 29.93 in 10.0 mi Calm Calm - N/A   Partly Cloudy
7:53 PM 75.9 °F - 71.1 °F 85% 29.94 in 10.0 mi Calm Calm - N/A   Clear
8:53 PM 73.9 °F - 71.1 °F 91% 29.95 in 10.0 mi Calm Calm - N/A   Clear
9:53 PM 73.0 °F - 71.1 °F 93% 29.96 in 10.0 mi Calm Calm - N/A   Clear
10:53 PM 73.0 °F - 71.1 °F 93% 29.96 in 10.0 mi Calm Calm - N/A   Clear
11:53 PM 71.1 °F - 70.0 °F 96% 29.95 in 9.0 mi Calm Calm - N/A   Clear